Albany, NY

9:43 AM EDT on October 21, 2019 (GMT -0400)
Albany International

Weather History for KALB - August, 2019

Change the Weather History Date:

Monday, August 12, 2019

  Actual Average Record
Temperature  
Mean Temperature 71 °F 71 °F  
Max Temperature 86 °F 81 °F 99 °F (1944)
Min Temperature 56 °F 61 °F 46 °F (1987)
Degree Days  
Heating Degree Days 0 0  
Month to date heating degree days 0 0  
Since 1 June heating degree days 27 57  
Since 1 July heating degree days 0 5  
Cooling Degree Days 6 6  
Month to date cooling degree days 89 81  
Year to date cooling degree days 595 447  
Since 1 June cooling degree days 573 417  
Growing Degree Days 20 (Base 50)    
Moisture  
Dew Point 59 °F    
Average Humidity 65    
Maximum Humidity 86    
Minimum Humidity 44    
Precipitation  
Precipitation T in 0.12 in 1.30 in (1888)
Month to date precipitation 1.66 1.48  
Year to date precipitation 26.52 24.17  
Sea Level Pressure  
Sea Level Pressure 29.91 in    
Wind  
Wind Speed 4 mph (SSW)    
Max Wind Speed 13 mph    
Max Gust Speed 17 mph    
Visibility 10 miles    
Events Rain    
T = Trace of Precipitation, MM = Missing Value Source: NWS Daily Summary

Daily Weather History Graph

Daily Weather History Graph

Search for Another Location

Airport or City:

Astronomy

Aug. 12, 2019 Rise Set
Actual Time 5:58 AM EDT 8:01 PM EDT
Civil Twilight 5:27 AM EDT 8:32 PM EDT
Nautical Twilight 4:49 AM EDT 9:10 PM EDT
Astronomical Twilight 4:07 AM EDT 9:51 PM EDT
Moon 6:32 PM EDT (8/12) 3:01 AM EDT (8/12)
Length of Visible Light 15h 05m
Length of Day
14h 03m
Waxing Gibbous, 93% of the Moon is Illuminated
Aug 12
Waxing Gibbous
Aug 15
Full
Aug 23
Last Quarter
Aug 30
New
Sep 5
First Quarter

Hourly Weather History & Observations

Time (EDT) Temp. Heat Index Dew Point Humidity Pressure Visibility Wind Dir Wind Speed Gust Speed Precip Events Conditions
12:51 AM 62.1 °F - 54.0 °F 75% 29.98 in 10.0 mi Calm Calm - N/A   Clear
1:51 AM 61.0 °F - 53.1 °F 75% 29.98 in 10.0 mi Calm Calm - N/A   Clear
2:51 AM 57.9 °F - 52.0 °F 81% 29.97 in 10.0 mi Calm Calm - N/A   Clear
3:51 AM 57.9 °F - 53.1 °F 84% 29.97 in 10.0 mi Calm Calm - N/A   Clear
4:51 AM 57.0 °F - 53.1 °F 87% 29.99 in 10.0 mi Calm Calm - N/A   Clear
5:51 AM 57.0 °F - 53.1 °F 87% 29.99 in 10.0 mi SE 3.5 mph - N/A   Partly Cloudy
6:51 AM 61.0 °F - 55.0 °F 81% 29.98 in 10.0 mi SSE 3.5 mph - N/A   Scattered Clouds
7:51 AM 64.0 °F - 55.9 °F 75% 29.98 in 10.0 mi South 5.8 mph - N/A   Partly Cloudy
8:51 AM 68.0 °F - 57.0 °F 68% 29.98 in 10.0 mi SSE 5.8 mph - N/A   Partly Cloudy
9:51 AM 71.1 °F - 57.9 °F 63% 29.97 in 10.0 mi Variable 3.5 mph - N/A   Partly Cloudy
10:51 AM 75.9 °F - 59.0 °F 56% 29.96 in 10.0 mi SSW 6.9 mph - N/A   Partly Cloudy
11:51 AM 79.0 °F - 61.0 °F 54% 29.94 in 10.0 mi South 8.1 mph - N/A   Partly Cloudy
12:51 PM 82.9 °F 83.3 °F 61.0 °F 47% 29.91 in 10.0 mi South 6.9 mph - N/A   Scattered Clouds
1:51 PM 84.0 °F 84.4 °F 61.0 °F 46% 29.88 in 10.0 mi SSW 8.1 mph - N/A   Scattered Clouds
2:51 PM 82.9 °F 82.8 °F 59.0 °F 44% 29.86 in 10.0 mi West 6.9 mph - N/A   Scattered Clouds
3:51 PM 82.0 °F 82.7 °F 61.0 °F 49% 29.86 in 10.0 mi SW 5.8 mph - N/A   Mostly Cloudy
4:51 PM 82.0 °F 82.4 °F 60.1 °F 47% 29.85 in 10.0 mi SW 4.6 mph - N/A   Overcast
5:51 PM 81.0 °F 81.7 °F 61.0 °F 50% 29.84 in 10.0 mi NW 3.5 mph - 0.00 in   Overcast
6:51 PM 82.0 °F 83.1 °F 63.0 °F 52% 29.84 in 10.0 mi SW 3.5 mph - N/A   Mostly Cloudy
7:51 PM 77.0 °F - 64.0 °F 64% 29.83 in 10.0 mi Calm Calm - N/A   Mostly Cloudy
8:51 PM 75.0 °F - 64.9 °F 71% 29.84 in 10.0 mi Calm Calm - N/A   Overcast
9:51 PM 72.0 °F - 66.0 °F 81% 29.84 in 10.0 mi South 3.5 mph - 0.00 in Rain Light Rain
10:51 PM 72.0 °F - 66.9 °F 84% 29.83 in 10.0 mi SSE 3.5 mph - 0.00 in   Overcast
11:51 PM 71.1 °F - 66.9 °F 87% 29.83 in 10.0 mi Calm Calm - N/A   Overcast